Regional Weather Roundup
Issued by NWS

Home | Current Version | Previous Version | Graphics & Text | Print | Product List | Glossary On
Versions: 1 2 3 4 5 6 7 8 9 10 11 12 13 14 15 16 17 18 19 20 21 22 23 24 25 26 27 28 29 30 31 32 33 34 35 36 37 38 39 40 41 42 43 44 45 46 47 48 49 50
000
ASUS45 KSLC 042310
RWRUT

UTAH REGIONAL WEATHER ROUNDUP
NATIONAL WEATHER SERVICE SALT LAKE CITY UT
500 PM MDT WED MAY 04 2016

UTZ001>011-023>025-050000-

NORTHERN UTAH

CITY           SKY/WX    TMP DP  RH WIND       PRES   REMARKS
BRIGHAM CITY   PTSUNNY   77  24  13 CALM      30.02F
DUGWAY         PTSUNNY   80  31  16 S12G17    29.99
HILL AFB       MOSUNNY   75  34  22 SW8       30.02F
LOGAN          PTSUNNY   75  34  22 N6        30.02F
OGDEN          MOSUNNY   78  34  20 NW9       30.00F
PROVO AIRPORT  NOT AVBL
SALT LAKE CITY PTSUNNY   82  29  14 S15G21    29.98F
VERNAL         SUNNY     76  27  16 S13       30.10F
WENDOVER       PTSUNNY   73  37  27 CALM      30.00F
HEBER CITY     MOSUNNY   75  32  20 SW12      30.04F

$$

UTZ012>022-026-027-050000-

SOUTHERN/CENTRAL UTAH

CITY           SKY/WX    TMP DP  RH WIND       PRES   REMARKS
BLANDING       MOSUNNY   74  27  17 S8        30.23F
BRYCE CANYON   SUNNY     65  26  23 S12G22    30.21F
CEDAR CITY     SUNNY     77  25  14 SW12G28   30.02F
DELTA          MOSUNNY   77  30  18 SE7       29.98F
HANKSVILLE     SUNNY     82  23  11 S14G26    30.05F
MILFORD        MOSUNNY   81  24  12 S22G29    29.98F
MOAB/CYNLANDS  SUNNY     82  25  12 S13G21    30.04F
PRICE          SUNNY     74  26  16 S12       30.13F
ST GEORGE      PTCLDY    88  30  12 W6        29.87F

$$

REGIONAL REPORTS     COLORADO/ARIZONA

CITY           SKY/WX    TMP DP  RH WIND       PRES   REMARKS
CRAIG, CO      SUNNY     73  28  18 W12       30.15F
GRAND JUNCTION SUNNY     76  28  17 NW7       30.08F
RIFLE          SUNNY     78  27  15 W13G20    30.11F
MONTROSE       SUNNY     77  26  15 NW9       30.15F
CORTEZ         SUNNY     75  24  15 SE5       30.18F
PAGE, AZ       SUNNY     85  23  10 SE16G23   29.99F
GRAND CANYON   MOSUNNY   75  21  13 SW13G22   30.14F
KINGMAN        SUNNY     89  23   9 S16       29.89F
FLAGSTAFF      SUNNY     70  24  17 S13G22    30.17F

$$

REGIONAL REPORTS    NEVADA/IDAHO/WYOMING

CITY           SKY/WX    TMP DP  RH WIND       PRES   REMARKS
LAS VEGAS, NV  MOSUNNY   91  25   9 SE14G21   29.77F
ELY            MOSUNNY   71  28  20 S20G25    30.03F
ELKO           CLOUDY    74  32  21 SE12      29.95F
POCATELLO, ID  CLOUDY    75  34  22 S16G23    30.02F
BURLEY         MOSUNNY   77  33  20 S10       29.95F
EVANSTON, WY   CLOUDY    68  22  17 SW9       30.14F
ROCK SPRINGS   MOSUNNY   67  22  18 SW9       30.15F
KEMMERER         N/A     70  18  13 S10       30.17F

$$



USA.gov is the U.S. government's official web portal to all federal, state and local government web resources and services.